[[{"header":{"parameterUnit":"m.s-1","parameterCategory":1,"la1":30.2991,"la2":30.254,"lo1":-89.0895,"lo2":-89.0444,"dy":0.0017,"dx":0.0017,"nx":28,"ny":28,"refTime":"2025-02-24T09:00:00:Z","depth":0,"parameterNumber":2,"parameterNumberName":"U-component_of_WINDS"},"data":[0,0,0,0,0,0,0,0,0,0,0,0,0,0,0,0,0,0,0,0,0,0,0,0,0,0,0,0,0,0,0,0,0,0,0,0,0,0,0,0,0,0,0,0,0,0,0,0,0,0,0,0,0,0,0,0,0,0,2.2792,2.2792,0,2.2869,2.287,2.2871,2.2847,2.2845,2.2843,2.2842,2.2927,2.293,2.2934,0,0,0,0,0,0,0,0,0,0,0,0,0,2.263,2.2633,2.2791,2.2792,2.2793,2.2869,2.287,2.2871,2.2847,2.2845,2.2843,2.2841,2.2925,2.293,2.2935,0,0,0,0,0,0,0,0,0,0,0,0,0,2.2703,2.2634,2.2791,2.279,2.2791,2.2868,2.287,2.2871,2.2847,2.2845,2.2842,2.284,2.2924,2.293,2.2935,2.302,0,0,2.2953,2.2955,0,0,0,0,0,0,0,0,2.2699,2.2709,2.2789,2.2791,2.2791,2.2845,2.2844,2.2921,2.2848,2.2826,2.2842,2.2839,2.2902,2.2909,2.293,2.3024,2.3028,2.2953,2.2957,2.2959,2.2961,0,0,0,0,0,0,0,2.2694,2.2706,2.2822,2.2791,2.2792,2.2788,2.2796,2.2858,2.2877,2.2828,2.2826,2.2835,2.2902,2.2924,2.2931,2.3029,2.2953,2.2958,2.2962,2.2964,2.3201,2.3204,0,0,0,0,0,0,2.2687,2.2701,2.282,2.2825,2.2738,2.2793,2.2802,2.2831,2.2876,2.2881,2.2837,2.2834,2.2916,2.2925,2.2934,2.304,2.2959,2.2964,2.2968,2.3198,2.3201,2.3205,0,0,0,0,0,0,2.2684,2.2698,2.2817,2.2763,2.2777,2.2799,2.2831,2.2834,2.2855,2.2884,2.2887,2.2856,2.2914,2.2926,2.2999,2.3042,2.2967,2.2972,2.3195,2.3199,2.3203,2.3249,0,0,0,0,0,0,2.2679,2.2697,2.2728,2.2763,2.278,2.2878,2.2834,2.2837,2.2865,2.2861,2.2902,2.2907,2.2913,2.2991,2.3005,2.3049,2.2977,2.3191,2.3197,2.3202,2.3244,2.3254,2.3263,0,0,0,0,0,2.2674,2.2738,2.2729,2.2744,2.2819,2.2881,2.2891,2.2895,2.2868,2.2901,2.2919,2.2905,2.3034,2.2999,2.3014,2.306,2.3188,2.3195,2.3201,2.3239,2.3252,2.3263,0,0,0,0,0,0,2.2708,2.2742,2.2733,2.2811,2.2843,2.2877,2.2918,2.2908,2.295,2.2945,2.295,2.296,2.3036,2.3055,2.3014,2.3147,2.3108,2.3118,2.3131,2.3144,2.3153,2.3148,2.2981,0,0,0,0,0,2.2724,2.277,2.2798,2.2864,2.288,2.2896,2.2923,2.2924,2.2958,2.2972,2.2996,2.3032,2.3081,2.3113,2.3159,2.3246,2.3256,2.3285,2.3295,2.3303,2.3312,2.3363,2.3377,2.3226,2.3226,2.3226,0,0,2.2759,2.2784,2.2812,2.2871,2.2896,2.2946,2.2908,2.2961,2.2999,2.2981,2.3052,2.3071,2.3111,2.3192,2.3229,2.321,2.3356,2.3311,2.3317,2.3322,2.3371,2.3385,2.3398,2.323,2.3229,2.3229,0,0,2.2849,2.287,2.2929,2.2954,2.2992,2.3003,2.3017,2.3053,2.3064,2.3135,2.3123,2.3169,2.3252,2.3282,2.3309,2.3411,2.3402,2.3426,2.3478,2.3528,2.354,2.355,2.359,2.3604,2.3435,2.3435,2.3435,0,2.2888,2.296,2.296,2.3016,2.3044,2.3028,2.3089,2.3115,2.3167,2.3188,2.3165,2.3271,2.3297,2.3386,2.3412,2.3432,2.3451,2.3423,2.3537,2.3548,2.3558,2.3596,2.3611,2.3438,2.3438,2.3437,2.3437,0,2.3008,2.3058,2.3102,2.3151,2.3184,2.3242,2.3253,2.3287,2.3285,2.3298,2.3373,2.3403,2.3456,2.3477,2.3476,2.3568,2.3555,2.3535,2.3497,2.3576,2.3612,2.3626,2.3442,2.3441,2.344,2.344,0,0,2.3122,2.3172,2.3188,2.3212,2.3253,2.3293,2.3352,2.3402,2.3433,2.3469,2.3521,2.3592,2.3574,2.3604,2.3606,2.3649,2.3733,2.3624,2.3625,2.3646,2.384,2.3857,2.3874,2.3725,2.3728,2.373,2.3838,0,2.3218,2.3318,2.3322,2.3415,2.3464,2.345,2.3502,2.3534,2.3549,2.3594,2.361,2.3662,2.3633,2.3651,2.3693,2.3714,2.3772,2.3705,2.3777,2.3779,2.377,2.3892,2.391,2.4009,2.3851,2.3854,2.3855,0,2.3342,2.3382,2.3481,2.3517,2.3538,2.3584,2.3632,2.3674,2.3712,2.372,2.3754,2.375,2.3813,2.3771,2.3859,2.3814,2.3843,2.3858,2.3862,2.3871,2.3824,2.3908,2.4041,2.4057,2.3877,2.3875,2.3874,0,2.342,2.3498,2.3568,2.3588,2.3632,2.3665,2.3685,2.372,2.3751,2.3794,2.3815,2.3865,2.3893,2.3933,2.3944,2.3912,2.4034,2.3992,2.4046,2.4046,2.4074,2.4073,2.4217,2.4088,2.4088,2.4087,2.4087,0,2.3528,2.359,2.3604,2.3647,2.3717,2.372,2.379,2.3808,2.3839,2.3888,2.3879,2.3925,2.3935,2.3984,2.3993,2.4068,2.408,2.409,2.4093,2.4093,2.4092,2.4114,2.4109,2.4091,2.409,2.409,2.4089,0,2.3628,2.3639,2.3715,2.375,2.376,2.381,2.3841,2.3885,2.3897,2.3959,2.3974,2.3996,2.4054,2.4068,2.4137,2.4143,2.4232,2.4226,2.4219,2.422,2.4274,2.427,2.444,2.4464,2.4316,2.4317,2.4318,0,2.3698,2.3745,2.3785,2.3816,2.3837,2.3887,2.3919,2.3925,2.3959,2.4006,2.4045,2.4101,2.4146,2.4239,2.4263,2.4316,2.4314,2.437,2.4322,2.4322,2.4319,2.4317,2.4324,2.438,2.4382,2.4383,2.4384,0,2.3822,2.3825,2.387,2.3919,2.3957,2.3995,2.4032,2.4058,2.407,2.4109,2.4167,2.4202,2.4272,2.433,2.4384,2.4407,2.4399,2.4398,2.4414,2.4417,2.4412,2.4419,2.4247,2.4395,2.4394,2.4393,2.4393,2.4392,2.3911,2.3954,2.3989,2.404,2.4068,2.4103,2.4146,2.4164,2.4212,2.4269,2.427,2.4334,2.4373,2.4444,2.4471,2.4523,2.4506,2.4528,2.4535,2.4541,2.4547,2.4401,2.4532,2.4532,2.4532,2.4532,2.4531,0,2.4038,2.406,2.4107,2.4158,2.42,2.4186,2.4226,2.4263,2.4319,2.4354,2.4399,2.4468,2.4523,2.4551,2.4607,2.4644,2.4642,2.4659,2.4658,2.4664,2.4557,2.4539,2.466,2.466,2.466,2.4659,2.4659,2.4659,2.4109,2.4181,2.4188,2.4275,2.4297,2.4359,2.4384,2.4417,2.4446,2.4522,2.4568,2.4585,2.4619,2.4677,2.4729,2.4736,2.4758,2.4778,2.4784,2.4684,2.4671,2.4659,2.4642,2.4782,2.4782,2.4886,2.4887,2.4888]},{"header":{"parameterUnit":"m.s-1","parameterCategory":1,"la1":30.2991,"la2":30.254,"lo1":-89.0895,"lo2":-89.0444,"dy":0.0017,"dx":0.0017,"nx":28,"ny":28,"refTime":"2025-02-24T09:00:00:Z","depth":0,"parameterNumber":3,"parameterNumberName":"V-component_of_WINDS"},"data":[0,0,0,0,0,0,0,0,0,0,0,0,0,0,0,0,0,0,0,0,0,0,0,0,0,0,0,0,0,0,0,0,0,0,0,0,0,0,0,0,0,0,0,0,0,0,0,0,0,0,0,0,0,0,0,0,0,0,0.1347,0.1347,0,0.1348,0.1349,0.1349,0.1323,0.1322,0.1321,0.1321,0.132,0.132,0.1321,0,0,0,0,0,0,0,0,0,0,0,0,0,0.1316,0.1317,0.1347,0.1347,0.1347,0.1348,0.1349,0.1349,0.1323,0.1322,0.1321,0.1321,0.132,0.132,0.1321,0,0,0,0,0,0,0,0,0,0,0,0,0,0.1325,0.1317,0.1347,0.1334,0.1333,0.1348,0.1349,0.1349,0.1323,0.1322,0.1321,0.132,0.1319,0.132,0.1321,0.1348,0,0,0.1324,0.1324,0,0,0,0,0,0,0,0,0.1324,0.1326,0.1336,0.1335,0.1334,0.1334,0.1337,0.1348,0.1323,0.1327,0.1321,0.132,0.1325,0.1326,0.1328,0.1348,0.1348,0.1324,0.1325,0.1325,0.1325,0,0,0,0,0,0,0,0.1324,0.1325,0.1347,0.1336,0.1335,0.1327,0.1327,0.1339,0.1332,0.1327,0.1325,0.1325,0.1325,0.1327,0.1328,0.1348,0.1324,0.1325,0.1326,0.1326,0.1383,0.1384,0,0,0,0,0,0,0.1325,0.1325,0.1347,0.1347,0.1327,0.1328,0.1328,0.1335,0.1332,0.133,0.1326,0.1324,0.1326,0.1327,0.1328,0.1355,0.1325,0.1326,0.1327,0.1382,0.1383,0.1384,0,0,0,0,0,0,0.1325,0.1327,0.1347,0.1336,0.1338,0.133,0.1338,0.1336,0.1339,0.1332,0.133,0.1331,0.1326,0.1327,0.1342,0.1355,0.1326,0.1327,0.1381,0.1382,0.1383,0.1412,0,0,0,0,0,0,0.1324,0.1327,0.1339,0.1336,0.1338,0.1363,0.1339,0.1337,0.1341,0.1338,0.1335,0.1334,0.1325,0.1341,0.1343,0.1356,0.1328,0.1379,0.1381,0.1383,0.141,0.1414,0.1418,0,0,0,0,0,0.1323,0.1348,0.134,0.1343,0.1353,0.1364,0.1365,0.1355,0.1342,0.1352,0.1347,0.1334,0.1353,0.1342,0.1345,0.1358,0.1378,0.1381,0.1383,0.1408,0.1414,0.1418,0,0,0,0,0,0,0.1353,0.1348,0.1339,0.1364,0.1365,0.136,0.1373,0.1362,0.1366,0.1363,0.1349,0.1349,0.1365,0.1363,0.1351,0.138,0.1363,0.1366,0.1382,0.1387,0.1391,0.1391,0.1329,0,0,0,0,0,0.1363,0.1374,0.1367,0.139,0.1391,0.1382,0.1386,0.1378,0.1378,0.1378,0.1374,0.1373,0.1378,0.1382,0.1387,0.1409,0.1406,0.1419,0.1423,0.1426,0.1429,0.1435,0.144,0.1391,0.1391,0.1391,0,0,0.1383,0.1381,0.1389,0.1396,0.1396,0.1405,0.1382,0.1394,0.14,0.138,0.1393,0.139,0.1387,0.1405,0.1412,0.1404,0.1441,0.1429,0.1432,0.1432,0.1438,0.1443,0.1447,0.1392,0.1392,0.1392,0,0,0.1424,0.1425,0.1442,0.1441,0.144,0.1433,0.1437,0.1433,0.143,0.1443,0.1426,0.1432,0.1443,0.144,0.1441,0.1475,0.1462,0.1477,0.1498,0.1505,0.1509,0.1512,0.1521,0.1525,0.1479,0.1479,0.1479,0,0.1449,0.1463,0.1452,0.1463,0.1465,0.1446,0.1461,0.1461,0.1461,0.1462,0.1452,0.1462,0.1459,0.1474,0.1482,0.1484,0.1485,0.1477,0.1509,0.1512,0.1515,0.1524,0.1528,0.1481,0.1481,0.148,0.148,0,0.1492,0.1502,0.1515,0.1515,0.1519,0.1532,0.152,0.1524,0.1514,0.1507,0.1518,0.1514,0.1516,0.1518,0.151,0.153,0.1524,0.1512,0.1494,0.1522,0.1529,0.1533,0.1483,0.1483,0.1482,0.1482,0,0,0.1555,0.1545,0.155,0.1548,0.1543,0.155,0.156,0.1562,0.1564,0.1564,0.157,0.1577,0.1564,0.1564,0.1554,0.1561,0.1583,0.1547,0.1546,0.1552,0.1602,0.161,0.1614,0.1574,0.1575,0.1576,0.1601,0,0.1592,0.1611,0.1598,0.1618,0.1625,0.1604,0.1613,0.1609,0.1602,0.1605,0.1596,0.16,0.1585,0.1584,0.1589,0.158,0.1593,0.1578,0.1578,0.1578,0.1578,0.1619,0.1629,0.1654,0.1604,0.1605,0.1605,0,0.164,0.164,0.166,0.165,0.1652,0.1661,0.1658,0.1662,0.1656,0.165,0.1648,0.1634,0.1641,0.1623,0.1629,0.1619,0.1618,0.1612,0.1613,0.1612,0.1593,0.1617,0.1662,0.1665,0.161,0.161,0.161,0,0.168,0.1686,0.1697,0.1696,0.1686,0.1691,0.1687,0.168,0.168,0.1677,0.1676,0.1674,0.1673,0.167,0.1655,0.1644,0.1662,0.1644,0.1654,0.1655,0.166,0.1659,0.1702,0.1661,0.1661,0.1661,0.1661,0,0.1722,0.1735,0.1715,0.1722,0.1734,0.1718,0.1729,0.1722,0.1715,0.1718,0.17,0.1704,0.1684,0.1684,0.1672,0.1677,0.1677,0.167,0.1667,0.1671,0.1672,0.167,0.1667,0.1662,0.1661,0.1661,0.1661,0,0.177,0.1757,0.1768,0.1756,0.1753,0.1762,0.175,0.1755,0.1745,0.1749,0.1749,0.1732,0.1731,0.1715,0.1711,0.1702,0.1711,0.1705,0.1714,0.1711,0.1722,0.172,0.1765,0.1768,0.1726,0.1726,0.1726,0,0.1798,0.1806,0.1794,0.1795,0.1791,0.1794,0.1793,0.1775,0.1775,0.1766,0.1771,0.1768,0.1765,0.1762,0.1749,0.1744,0.1736,0.1752,0.1736,0.1739,0.1734,0.1733,0.1732,0.1756,0.1756,0.1757,0.1757,0,0.1847,0.1839,0.1839,0.1836,0.1835,0.1832,0.1828,0.1829,0.1809,0.1809,0.1807,0.1805,0.1798,0.1794,0.1786,0.1779,0.1764,0.1762,0.1764,0.1768,0.1772,0.1768,0.1722,0.1761,0.1761,0.176,0.176,0.176,0.1884,0.1889,0.188,0.188,0.1874,0.1869,0.1871,0.186,0.1859,0.1853,0.1842,0.1841,0.183,0.1817,0.1811,0.1808,0.1799,0.1803,0.1803,0.1804,0.1805,0.1773,0.1806,0.1806,0.1806,0.1806,0.1806,0,0.193,0.1922,0.1922,0.1915,0.1914,0.1899,0.1892,0.1891,0.1891,0.1882,0.1878,0.1874,0.1869,0.1854,0.1846,0.1846,0.1839,0.1845,0.1844,0.1842,0.1814,0.1813,0.1851,0.1851,0.1851,0.1851,0.1851,0.1851,0.1954,0.1961,0.1951,0.1954,0.1945,0.1945,0.1941,0.1935,0.1927,0.1924,0.1919,0.1909,0.1896,0.1887,0.1881,0.1876,0.1873,0.1881,0.1874,0.1849,0.1844,0.184,0.1838,0.1881,0.1881,0.1901,0.1901,0.1901]}]]